Regional Weather Roundup
Issued by NWS Huntsville, AL

Home | Current Version | Previous Version | Text Only | Print | Product List | Glossary On
Versions: 1 2 3 4 5 6 7 8 9 10 11 12 13 14 15 16 17 18 19 20 21 22 23 24 25 26 27 28 29 30 31 32 33 34 35 36 37 38 39 40 41 42 43 44 45 46 47 48 49 50
000
ASUS44 KHUN 070510
RWRHUN

WEATHER ROUNDUP FOR THE TENNESSEE VALLEY
NATIONAL WEATHER SERVICE HUNTSVILLE AL
1200 AM CDT TUE JUL 07 2015

ALZ001>004-070600-
NORTHWEST ALABAMA

CITY           SKY/WX    TMP DP  RH WIND       PRES   REMARKS
COURTLAND HCN    N/A     75 N/A N/A S3          N/A
RUSSELLVILLE     N/A     73 N/A N/A MISG        N/A
SHOALS AIRPORT CLEAR     73  71  93 SE5       30.11S
SHOALS TVA RES   N/A     73 N/A N/A MISG        N/A
$$

ALZ005>007-016-070600-
NORTH CENTRAL ALABAMA

CITY           SKY/WX    TMP DP  RH WIND       PRES   REMARKS
CULLMAN AG STN   N/A     70 N/A N/A CALM        N/A
DECATUR AP     CLEAR     74  72  93 S6        30.12S
HUNTSVILLE AP  CLEAR     76  72  87 S3        30.12S
HUN NWS/UAH      N/A     76  69  79 SW2         N/A
MERIDIANVILLE  CLEAR     72  68  88 CALM      30.12S
REDSTONE ARSN  CLEAR     73  71  95 S3        30.11S
VINEMONT AP    FAIR      71  70  96 S3        30.16S
$$

ALZ008>010-070600-
NORTHEAST ALABAMA

CITY           SKY/WX    TMP DP  RH WIND       PRES   REMARKS
ALBERTVILLE    CLEAR     72  72 100 CALM      30.14S
FORT PAYNE     CLEAR     70  66  88 CALM      30.13S
SCOTTSBORO AP  MOCLDY    72  72 100 CALM      30.13S
SCOTTSBORO HCN   N/A     72 N/A N/A MISG        N/A
VALLEY HEAD      N/A     70 N/A N/A MISG        N/A
$$

TNZ076-096-097-070600-
SOUTHEASTERN MIDDLE TENNESSEE

CITY           SKY/WX    TMP DP  RH WIND       PRES   REMARKS
TULLAHOMA      CLEAR     72  70  94 S3        30.13F
WINCHESTER     CLEAR     72  70  94 SE3       30.13S
$$

...SURROUNDING SITES...

CITY           SKY/WX    TMP DP  RH WIND       PRES   REMARKS
ATLANTA        CLEAR     74  69  85 SW3       30.15R
ANNISTON       CLEAR     73  70  90 CALM      30.14S
BIRMINGHAM     CLEAR     76  72  87 CALM      30.15S
CHATTANOOGA    CLEAR     75  70  84 SW3       30.12S
CORINTH        FAIR      75  72  88 S5        30.07S
DALTON         CLEAR     70  70 100 CALM      30.13S
GADSDEN        CLEAR     81  66  61 CALM      30.12F
GOLDEN TRNGL   CLEAR     77  72  83 S6        30.09S
HALEYVILLE     FAIR      73  73 100 CALM      30.15S
JACKSON TN     MOCLDY    77  72  84 S8        30.05R
MEMPHIS        MOCLDY    79  73  82 S12       30.04S
NASHVILLE      CLEAR     75  73  93 S5        30.07F
ROME           CLEAR     72  70  93 CALM      30.13R
SAVANNAH       CLEAR     73  32  21 CALM      30.08S
TUPELO         CLEAR     76  74  93 S6        30.07S
TUSCALOOSA     CLEAR     75  73  93 CALM      30.12R
$$

...GULF COAST WEATHER...

CITY           SKY/WX    TMP DP  RH WIND       PRES   REMARKS
GULFPORT       CLEAR     82  78  88 SE5       30.10R HX  91
PASCAGOULA     CLEAR     76  75  97 CALM      30.12R
MOBILE         CLEAR     77  75  93 SE3       30.13R
GULF SHORES    CLEAR     73  71  95 CALM      30.11S
PENSACOLA      CLEAR     72  68  87 SW3       30.10F
DESTIN         CLEAR     82  73  74 CALM      30.11S
PANAMA CITY    CLEAR     74  73  95 CALM      30.11S
APPALACHICOLA  CLEAR     79  73  82 CALM      30.11S
$$



USA.gov is the U.S. government's official web portal to all federal, state and local government web resources and services.